Wind_Speed
38 40 41 43 42 38 36 35 34 33 30 29 27 25 25 29 29 27 25 27 25 22 19 23 22 18 18 17 17 15 18 23 20 18 17 15 17 14 13 16 14 10 11 15 19
37 40 43 43 45 44 42 42 37 34 33 33 33 30 30 29 31 34 29 30 31 30 24 26 25 23 20 19 19 20 21 22 19 18 17 16 18 19 17 17 15 15 13 12 13
34 34 37 42 42 42 43 43 39 38 38 37 35 32 31 30 28 29 35 34 36 35 27 25 22 21 23 21 20 24 26 20 21 18 17 18 18 16 14 13 11 13 11 19 14
35 34 35 36 39 41 41 39 37 35 35 35 36 32 32 32 22 28 30 34 38 39 33 28 27 27 28 26 25 27 26 23 23 19 18 17 15 13 13 14 14 12 11 13 10
35 34 34 35 37 37 38 38 36 36 35 34 32 33 31 35 36 30 29 39 37 38 38 31 31 30 32 27 24 28 25 23 21 21 19 17 16 15 13 13 13 10 11 12 15
36 35 35 35 35 36 37 37 36 36 36 35 32 32 35 42 29 30 34 36 29 29 31 34 31 30 29 29 27 23 24 25 20 21 19 18 15 15 13 12 12 14 11 13 17
36 36 36 35 35 36 36 37 37 38 37 35 33 37 44 39 31 32 29 33 35 30 25 30 31 27 28 28 25 26 28 26 26 22 21 19 21 24 16 16 15 16 19 16 16
37 36 36 36 37 36 35 34 35 36 36 36 37 40 48 35 34 35 29 26 34 37 31 19 26 30 27 23 26 25 28 29 24 24 19 20 26 19 19 18 17 17 18 16 16
41 41 39 37 36 35 35 35 36 35 34 33 35 38 44 40 38 31 32 32 25 29 26 22 22 31 28 25 28 27 28 27 23 18 19 21 25 20 17 18 21 20 18 19 18
45 45 43 41 39 37 33 34 34 34 34 34 34 33 35 28 20 30 35 32 31 24 24 26 22 29 31 32 37 31 28 26 20 19 18 22 25 23 20 22 23 23 20 18 16
48 47 47 45 42 38 35 34 32 34 40 39 35 34 16 13 18 22 34 35 34 27 32 30 30 39 41 38 30 26 24 21 19 13 19 19 24 26 25 27 27 25 22 18 17
41 46 48 47 44 39 36 35 33 31 33 37 36 43 33 24 24 23 21 35 35 36 31 29 41 35 31 30 31 29 25 24 21 19 18 21 27 27 27 28 26 25 22 20 20
27 30 38 45 45 36 38 35 37 31 39 44 45 42 40 37 37 26 29 28 33 36 38 42 33 30 32 31 31 29 26 23 22 19 18 20 31 25 19 21 19 15 19 17 19
27 24 24 27 35 37 32 34 28 25 20 35 28 43 41 37 42 36 29 33 30 40 37 37 31 29 34 34 30 29 24 22 20 20 22 18 25 22 19 15 15 16 17 16 17
29 29 29 24 23 22 26 25 20 15 9 14 27 25 26 44 25 33 36 34 39 30 38 44 33 35 33 36 30 28 21 20 19 20 23 24 21 24 17 14 10 10 15 15 14
32 29 29 27 22 18 20 19 23 15 16 16 24 23 24 38 42 10 40 35 31 32 34 37 32 31 31 29 26 23 21 19 16 18 21 24 22 24 13 5 8 7 7 11 17
37 34 30 26 18 15 28 22 16 24 31 23 26 23 28 32 42 31 39 42 42 41 43 36 39 32 28 28 26 23 21 17 16 17 14 17 13 16 16 12 11 8 8 12 19
34 32 28 25 18 18 24 25 23 37 45 16 28 24 34 31 41 39 38 45 45 40 30 39 41 39 35 36 32 29 27 21 13 13 14 9 9 10 4 7 9 9 10 15 18
27 27 24 22 17 22 27 37 49 36 28 37 18 28 34 38 28 43 46 50 49 46 36 40 37 38 36 33 33 29 32 28 24 23 16 14 13 16 8 9 8 8 9 15 15
20 21 21 13 16 23 32 44 45 35 28 22 45 28 31 40 35 48 44 46 49 47 40 25 28 31 38 30 34 33 23 27 25 16 16 16 13 8 7 3 3 6 8 12 11
16 17 13 11 19 27 41 45 42 37 28 21 20 30 36 36 42 39 47 28 45 48 43 35 27 34 35 41 38 37 35 26 22 21 11 10 12 8 7 4 2 3 8 8 14
10 13 8 16 23 34 39 44 35 35 29 21 20 22 26 38 39 42 45 45 30 45 49 46 25 30 40 37 33 35 37 33 20 23 21 20 4 5 8 6 5 5 6 9 14
13 12 13 14 28 30 28 35 33 33 36 25 23 17 17 28 29 42 41 36 31 42 51 44 30 31 32 31 33 36 35 32 31 23 21 16 19 12 10 10 7 6 10 7 16
11 11 17 19 26 23 25 26 33 21 37 28 27 25 23 25 30 28 42 38 31 34 44 45 38 39 30 40 36 34 37 35 32 32 26 26 19 13 13 12 11 8 10 15 18
11 15 14 13 22 30 28 18 18 33 26 29 28 28 23 21 24 30 34 39 34 30 42 46 44 39 37 28 31 32 35 38 38 34 33 26 24 20 15 12 13 12 12 15 20
12 12 14 16 22 6 19 25 21 18 24 26 34 28 23 21 20 28 31 37 37 33 41 41 45 34 36 32 32 32 33 35 38 35 33 30 24 18 17 17 12 13 10 14 20
7 9 12 14 10 16 11 10 9 17 25 23 22 32 32 23 24 16 18 24 21 37 43 37 37 39 32 33 34 34 37 37 34 33 33 33 30 19 15 18 17 14 12 14 18
Wind_Direction
258 257 258 256 260 263 267 270 265 267 267 269 275 276 267 258 252 249 248 250 256 252 246 255 250 251 251 232 234 247 255 263 271 280 283 282 289 297 272 288 276 280 276 268 280
257 255 255 257 257 263 267 267 265 263 265 271 272 273 275 270 256 247 248 247 251 251 235 251 260 251 235 239 233 237 249 262 276 275 278 280 287 284 282 286 274 282 282 292 283
258 255 253 255 259 262 264 266 265 264 265 269 271 271 271 272 268 258 248 242 246 252 250 247 238 232 237 242 243 243 247 260 265 270 275 281 288 282 274 269 285 278 284 284 293
263 259 255 254 255 259 259 259 260 259 258 259 264 260 259 263 258 260 256 250 244 247 244 228 233 229 237 239 244 245 252 258 266 271 265 277 280 273 270 268 280 272 267 261 291
262 260 260 257 255 257 258 260 260 259 259 257 257 258 258 254 259 266 268 268 247 243 246 238 225 226 236 241 247 245 250 261 267 264 261 264 258 266 268 274 272 273 281 274 275
267 264 261 260 260 258 256 258 260 261 260 259 257 258 258 259 265 260 257 250 251 243 238 225 224 229 239 241 242 252 254 261 262 257 256 256 258 247 273 268 260 275 274 272 272
270 269 267 265 263 261 261 262 261 260 261 263 263 260 257 257 257 256 249 243 243 244 233 230 222 227 233 238 245 247 252 256 259 255 252 252 252 257 264 267 266 263 284 287 266
266 266 267 266 266 265 263 262 261 261 260 259 257 256 259 258 247 246 242 233 233 231 238 231 228 221 234 245 240 248 248 254 260 250 243 237 257 261 269 264 271 279 273 263 261
267 266 264 262 263 264 265 264 261 259 259 256 254 256 260 262 253 247 235 236 236 235 224 224 224 224 227 229 239 235 244 249 259 236 240 238 260 272 267 267 277 280 268 262 254
268 266 263 263 261 260 261 262 264 262 256 252 248 253 250 261 260 237 227 227 232 228 216 217 219 216 219 220 228 229 238 242 256 237 241 253 264 273 272 274 279 278 272 254 261
267 265 265 263 262 261 260 259 262 262 257 250 255 254 247 233 247 236 220 215 222 216 214 213 211 212 214 218 229 240 256 263 262 267 248 255 273 275 278 278 277 273 261 251 256
272 266 264 262 258 258 258 254 250 250 258 258 246 250 234 243 241 237 219 208 210 209 207 209 219 218 222 224 230 237 250 256 257 261 260 269 276 281 282 278 277 269 249 247 257
303 291 271 261 259 256 251 251 252 255 262 261 256 250 250 240 243 228 212 211 212 208 209 211 222 220 220 222 226 233 241 248 257 265 260 274 279 281 283 279 278 256 240 244 265
301 296 302 284 260 251 254 243 244 250 267 260 255 250 236 231 243 229 220 212 213 216 212 222 218 221 219 224 224 234 238 247 258 264 263 269 292 291 290 283 279 258 247 247 246
293 294 289 293 279 245 233 234 215 218 258 258 227 232 227 222 229 231 202 206 214 213 207 221 217 218 218 221 223 232 235 247 248 258 268 267 270 285 285 266 293 264 248 231 257
289 294 292 285 274 266 232 212 185 192 232 226 199 206 195 211 211 225 206 207 211 214 220 223 220 219 224 218 221 228 234 242 250 254 258 264 264 274 283 276 281 275 233 225 271
287 284 286 284 267 255 224 187 192 219 226 227 207 205 202 204 205 199 194 200 199 202 216 215 217 218 216 212 215 216 217 224 230 234 247 259 247 274 277 278 272 261 244 247 268
283 278 274 271 258 227 207 193 222 226 214 226 210 212 205 200 207 198 201 203 204 206 205 207 211 210 208 209 206 210 211 221 218 236 255 168 246 291 247 250 257 256 236 245 268
280 266 260 262 241 215 197 207 214 221 229 225 209 211 212 205 203 198 205 205 205 202 210 206 216 209 211 212 208 208 219 226 254 275 288 268 274 269 237 259 245 243 240 257 268
274 261 255 248 222 220 206 217 229 231 238 243 235 223 213 207 203 199 202 213 210 207 206 212 214 214 208 210 214 215 215 219 231 250 262 252 252 246 199 227 232 226 233 261 202
257 239 274 260 222 216 215 223 230 228 239 290 261 241 225 214 208 205 207 209 209 210 206 213 210 203 200 204 207 208 222 216 235 225 236 251 271 153 185 202 257 193 213 220 195
249 269 238 250 212 222 228 229 234 231 239 265 270 266 250 226 215 216 213 212 212 205 203 206 209 218 206 210 211 213 214 216 215 225 244 262 243 168 196 207 200 194 203 207 202
275 253 240 250 223 233 243 241 238 243 245 253 260 270 254 252 255 217 220 213 212 204 205 199 207 216 199 207 212 216 215 217 223 233 233 226 244 227 195 199 216 215 192 201 201
266 252 255 260 233 237 241 250 237 245 242 253 250 267 281 256 236 239 213 212 216 205 204 200 206 207 204 203 201 209 214 213 217 219 229 233 245 183 205 209 219 211 200 198 192
263 271 262 260 255 245 242 264 258 242 235 243 253 250 260 260 243 232 214 209 208 205 201 200 211 211 217 213 203 211 212 215 216 220 222 229 232 233 221 226 223 211 204 204 198
260 274 283 269 267 282 243 261 259 256 234 240 237 235 252 251 247 252 224 217 204 200 194 199 209 208 217 216 211 210 215 218 221 222 226 230 236 232 227 223 227 209 209 211 207
252 282 282 291 255 250 268 222 299 258 250 240 234 238 243 254 269 238 255 223 219 200 192 190 197 208 216 211 217 216 215 217 221 222 222 223 227 224 225 217 223 228 221 218 215
Height
3147 3147 3148 3149 3150 3151 3153 3155 3156 3157 3158 3158 3158 3160 3160 3161 3160 3160 3161 3163 3163 3166 3164 3165 3165 3166 3168 3168 3170 3173 3171 3167 3165 3163 3162 3163 3162 3161 3159 3160 3159 3158 3155 3153 3150
3140 3140 3141 3142 3144 3146 3147 3149 3149 3149 3150 3152 3153 3154 3154 3154 3154 3154 3155 3158 3159 3161 3158 3162 3162 3164 3165 3167 3168 3168 3166 3164 3164 3162 3161 3161 3160 3158 3157 3157 3156 3153 3150 3148 3147
3133 3132 3133 3135 3136 3137 3139 3141 3142 3142 3144 3144 3145 3146 3147 3147 3146 3149 3149 3151 3153 3155 3155 3158 3160 3161 3162 3166 3165 3163 3160 3161 3161 3160 3159 3158 3156 3154 3154 3154 3152 3151 3150 3145 3144
3126 3126 3125 3126 3129 3130 3132 3134 3134 3134 3136 3138 3138 3138 3140 3140 3145 3138 3142 3144 3146 3148 3149 3151 3154 3158 3159 3159 3161 3159 3158 3158 3157 3156 3156 3155 3154 3152 3152 3151 3149 3148 3147 3144 3140
3119 3119 3119 3120 3121 3122 3123 3124 3125 3126 3128 3129 3129 3129 3131 3130 3134 3134 3136 3136 3138 3138 3141 3146 3148 3152 3153 3154 3156 3154 3154 3154 3153 3152 3151 3150 3149 3149 3149 3147 3145 3144 3142 3140 3137
3110 3110 3111 3112 3113 3114 3115 3116 3117 3117 3119 3121 3122 3120 3121 3119 3128 3130 3129 3129 3131 3131 3134 3138 3143 3148 3150 3150 3150 3150 3150 3150 3149 3148 3148 3147 3146 3144 3146 3143 3141 3139 3138 3137 3134
3101 3101 3102 3103 3104 3104 3105 3106 3107 3108 3109 3112 3113 3112 3110 3115 3120 3123 3122 3123 3126 3127 3129 3132 3138 3144 3146 3144 3147 3147 3146 3145 3144 3143 3143 3143 3142 3140 3141 3139 3137 3135 3134 3131 3130
3092 3091 3092 3094 3095 3096 3098 3099 3100 3100 3102 3104 3105 3103 3095 3109 3114 3114 3117 3117 3118 3120 3124 3129 3131 3137 3142 3143 3143 3142 3142 3139 3136 3136 3138 3140 3136 3136 3135 3135 3132 3131 3130 3128 3125
3083 3083 3084 3085 3086 3087 3090 3091 3091 3093 3095 3097 3097 3094 3089 3097 3101 3108 3109 3110 3114 3116 3121 3125 3129 3130 3138 3137 3137 3136 3134 3132 3131 3130 3133 3134 3132 3132 3132 3131 3129 3128 3126 3123 3120
3071 3072 3073 3075 3077 3079 3082 3081 3082 3084 3086 3087 3088 3090 3089 3090 3093 3094 3099 3105 3107 3112 3115 3117 3122 3125 3129 3130 3123 3127 3125 3124 3126 3126 3128 3129 3128 3127 3126 3125 3124 3123 3121 3119 3116
3059 3059 3060 3063 3066 3069 3073 3074 3078 3077 3071 3077 3078 3079 3084 3084 3085 3088 3090 3097 3101 3107 3106 3111 3116 3111 3113 3118 3122 3122 3120 3119 3120 3121 3123 3123 3124 3123 3121 3119 3117 3117 3116 3115 3111
3047 3047 3047 3049 3054 3060 3062 3063 3066 3067 3063 3063 3068 3066 3076 3077 3080 3082 3085 3089 3092 3096 3103 3109 3101 3108 3114 3117 3118 3118 3118 3118 3119 3119 3120 3120 3118 3117 3115 3112 3111 3109 3111 3110 3107
3040 3037 3035 3036 3041 3049 3050 3055 3055 3059 3054 3051 3053 3058 3064 3072 3071 3077 3080 3083 3087 3093 3094 3094 3098 3106 3109 3110 3112 3113 3114 3115 3116 3116 3116 3116 3112 3109 3108 3106 3104 3103 3104 3105 3103
3034 3032 3029 3028 3034 3034 3042 3043 3050 3054 3053 3041 3042 3039 3050 3060 3056 3068 3073 3080 3084 3083 3091 3092 3097 3099 3101 3103 3106 3107 3111 3113 3114 3115 3112 3113 3103 3105 3102 3100 3100 3099 3100 3101 3099
3028 3026 3024 3025 3024 3031 3028 3036 3043 3050 3049 3033 3031 3033 3039 3041 3052 3051 3064 3071 3073 3079 3087 3077 3088 3091 3093 3096 3101 3103 3108 3109 3110 3112 3110 3108 3105 3098 3096 3095 3096 3095 3096 3096 3096
3020 3019 3017 3017 3021 3024 3022 3031 3037 3046 3026 3022 3022 3023 3032 3033 3040 3054 3053 3064 3073 3076 3077 3078 3083 3085 3088 3092 3097 3102 3104 3106 3107 3108 3104 3102 3100 3092 3091 3091 3094 3094 3094 3093 3093
3010 3010 3010 3009 3014 3014 3016 3026 3033 3020 3012 3013 3015 3019 3023 3027 3035 3045 3046 3052 3054 3064 3063 3071 3072 3078 3082 3087 3092 3096 3100 3101 3103 3099 3094 3091 3092 3089 3090 3090 3092 3092 3092 3091 3089
2998 2998 2999 3001 3005 3008 3011 3020 3011 2992 3001 3006 3009 3015 3016 3022 3027 3034 3039 3044 3049 3053 3056 3060 3065 3067 3070 3077 3083 3088 3093 3091 3092 3088 3082 3084 3087 3085 3087 3088 3089 3090 3090 3087 3086
2987 2987 2989 2992 2997 3001 3005 3004 2988 2990 3001 3004 3006 3006 3010 3014 3017 3025 3026 3029 3035 3041 3046 3050 3053 3062 3066 3074 3079 3082 3085 3090 3089 3086 3084 3080 3081 3082 3084 3085 3085 3087 3086 3084 3083
2980 2981 2982 2987 2991 2995 2996 2988 2987 2994 2994 3001 3000 3002 3002 3005 3011 3013 3020 3020 3028 3035 3043 3043 3051 3052 3061 3070 3072 3074 3081 3086 3085 3085 3084 3078 3077 3078 3080 3082 3083 3084 3083 3082 3083
2975 2977 2981 2981 2985 2988 2983 2977 2984 2991 2992 2996 2991 2994 2996 2999 3002 3004 3006 3014 3020 3027 3036 3040 3044 3047 3053 3056 3060 3068 3071 3076 3080 3080 3077 3076 3072 3072 3077 3081 3083 3083 3082 3081 3082
2974 2977 2978 2977 2981 2978 2976 2973 2983 2984 2990 2992 2989 2988 2987 2992 2993 2999 2999 3005 3012 3020 3026 3029 3039 3039 3041 3049 3056 3060 3064 3069 3072 3077 3076 3072 3070 3072 3077 3080 3083 3082 3082 3082 3082
2975 2975 2975 2975 2974 2973 2974 2974 2979 2979 2980 2987 2986 2985 2984 2983 2988 2989 2994 3002 3006 3011 3014 3026 3030 3035 3038 3048 3049 3052 3058 3063 3068 3071 3069 3071 3071 3072 3075 3078 3081 3081 3082 3081 3082
2973 2972 2971 2970 2969 2970 2970 2971 2973 2975 2975 2978 2980 2982 2981 2977 2978 2980 2986 2994 2999 3004 3012 3022 3023 3023 3021 3027 3039 3047 3050 3056 3062 3064 3068 3065 3066 3068 3073 3075 3077 3080 3081 3081 3081
2970 2968 2968 2966 2963 2964 2966 2967 2968 2971 2973 2976 2977 2977 2979 2978 2978 2978 2981 2988 2993 2998 3004 3012 3015 3021 3023 3027 3033 3039 3044 3048 3051 3057 3060 3063 3064 3066 3068 3071 3074 3075 3078 3080 3079
2967 2967 2965 2962 2961 2964 2964 2964 2965 2966 2969 2971 2973 2974 2974 2975 2979 2978 2980 2983 2983 2992 2996 3004 3009 3016 3019 3022 3025 3031 3036 3041 3045 3050 3055 3059 3059 3063 3065 3069 3071 3072 3074 3077 3078
2965 2964 2963 2961 2961 2961 2961 2962 2963 2964 2965 2966 2968 2971 2971 2969 2965 2963 2967 2969 2977 2985 2990 2997 3004 3011 3011 3016 3020 3021 3023 3032 3039 3044 3049 3052 3057 3059 3062 3065 3067 3070 3071 3074 3076